Weather History for Land O' Lakes, WI

Change the Weather History Date:

Thursday, September 12, 2013

  Actual Average (KEGV) Record (KEGV)
Temperature  
Mean Temperature 53 °F -  
Max Temperature 60 °F 69 °F 82 °F (2005)
Min Temperature 47 °F 47 °F 28 °F (2014)
Degree Days  
Heating Degree Days 12    
Growing Degree Days 3 (Base 50)    
Moisture  
Dew Point 48 °F    
Average Humidity 79    
Maximum Humidity 95    
Minimum Humidity 53    
Precipitation  
Precipitation 0.00 in - - ()
Sea Level Pressure  
Sea Level Pressure 30.12 in    
Wind  
Wind Speed 7 mph (NNW)    
Max Wind Speed 17 mph    
Max Gust Speed 25 mph    
Visibility 10 miles    
Events      
Averages and records for this station are not official NWS values.
T = Trace of Precipitation, MM = Missing Value Source: NWS Daily Summary

Daily Weather History Graph

Daily Weather History Graph

Search for Another Location

Airport:

Trip Planner

Search our weather history database for the weather conditions in past years. The results will help you decide how hot, cold, wet, or windy it might be!

Date:

Astronomy

Sep. 12, 2013 Rise Set
Actual Time 6:31 AM CDT 7:13 PM CDT
Civil Twilight 6:01 AM CDT 7:43 PM CDT
Nautical Twilight 5:25 AM CDT 8:19 PM CDT
Astronomical Twilight 4:47 AM CDT 8:57 PM CDT
Moon 2:20 PM CDT (9/12) 11:47 PM CDT (9/12)
Length of Visible Light 13h 42m
Length of Day
12h 42m
Waxing Crescent, 50% of the Moon is Illuminated
Sep 12
Waxing Crescent
Sep 12
First Quarter
Sep 19
Full
Sep 26
Last Quarter
Oct 4
New

Hourly Weather History & Observations

Time (CDT) Temp. Dew Point Humidity Pressure Visibility Wind Dir Wind Speed Gust Speed Precip Events Conditions
12:15 AM 57.2 °F 51.8 °F 82% 30.01 in 10.0 mi Calm Calm - N/A   Overcast
12:35 AM 56.3 °F 52.0 °F 85% 30.02 in 10.0 mi NW 3.5 mph - N/A   Mostly Cloudy
12:55 AM 55.8 °F 50.9 °F 84% 30.02 in 10.0 mi NNW 3.5 mph - N/A   Scattered Clouds
1:15 AM 55.4 °F 51.4 °F 87% 30.02 in 10.0 mi NW 3.5 mph - N/A   Mostly Cloudy
1:35 AM 55.8 °F 52.0 °F 87% 30.02 in 10.0 mi WNW 3.5 mph - N/A   Overcast
1:55 AM 55.6 °F 52.2 °F 88% 30.02 in 10.0 mi NW 3.5 mph - N/A   Scattered Clouds
2:15 AM 55.6 °F 52.2 °F 88% 30.02 in 10.0 mi NNW 6.9 mph - N/A   Clear
2:35 AM 55.8 °F 52.3 °F 88% 30.02 in 10.0 mi NNW 6.9 mph - N/A   Scattered Clouds
2:55 AM 55.6 °F 52.3 °F 89% 30.02 in 10.0 mi NNW 4.6 mph - N/A   Scattered Clouds
3:15 AM 55.0 °F 52.3 °F 91% 30.03 in 10.0 mi NNW 4.6 mph - N/A   Clear
3:35 AM 54.9 °F 52.7 °F 92% 30.03 in 10.0 mi NNW 5.8 mph - N/A   Clear
3:55 AM 55.0 °F 53.2 °F 94% 30.03 in 10.0 mi NNW 5.8 mph - N/A   Clear
4:15 AM 55.4 °F 53.6 °F 94% 30.03 in 10.0 mi NNW 10.4 mph - N/A   Clear
4:35 AM 55.6 °F 53.8 °F 94% 30.04 in 10.0 mi NNW 10.4 mph - N/A   Mostly Cloudy
4:55 AM 55.9 °F 53.8 °F 92% 30.04 in 10.0 mi NNW 9.2 mph - N/A   Overcast
5:15 AM 55.6 °F 53.1 °F 91% 30.04 in 10.0 mi NNW 6.9 mph - N/A   Mostly Cloudy
5:35 AM 54.7 °F 52.7 °F 93% 30.04 in 10.0 mi NW 5.8 mph - N/A   Clear
5:55 AM 54.5 °F 52.7 °F 94% 30.05 in 10.0 mi NNW 4.6 mph - N/A   Mostly Cloudy
6:15 AM 54.7 °F 53.2 °F 95% 30.05 in 10.0 mi NNW 6.9 mph - N/A   Mostly Cloudy
6:35 AM 55.4 °F 53.4 °F 93% 30.06 in 10.0 mi NNW 6.9 mph - N/A   Overcast
6:55 AM 55.6 °F 53.2 °F 92% 30.06 in 10.0 mi NNW 8.1 mph - N/A   Overcast
7:15 AM 55.4 °F 52.5 °F 90% 30.07 in 10.0 mi NNW 5.8 mph - N/A   Mostly Cloudy
7:35 AM 55.6 °F 53.1 °F 91% 30.07 in 10.0 mi NNW 5.8 mph - N/A   Overcast
7:55 AM 56.5 °F 52.9 °F 88% 30.07 in 10.0 mi North 9.2 mph - N/A   Mostly Cloudy
8:15 AM 57.6 °F 52.9 °F 84% 30.07 in 10.0 mi NNW 9.2 mph - N/A   Mostly Cloudy
8:35 AM 56.8 °F 51.8 °F 83% 30.09 in 10.0 mi North 11.5 mph 18.4 mph N/A   Mostly Cloudy
8:55 AM 56.7 °F 51.3 °F 82% 30.09 in 10.0 mi North 9.2 mph - N/A   Mostly Cloudy
9:15 AM 56.7 °F 50.0 °F 78% 30.10 in 10.0 mi NNW 12.7 mph 17.3 mph N/A   Overcast
9:35 AM 56.7 °F 49.6 °F 77% 30.11 in 10.0 mi NNW 6.9 mph 18.4 mph N/A   Overcast
9:55 AM 55.8 °F 48.7 °F 77% 30.11 in 10.0 mi North 10.4 mph - N/A   Overcast
10:15 AM 56.8 °F 47.8 °F 72% 30.12 in 10.0 mi NNW 9.2 mph 17.3 mph N/A   Overcast
10:35 AM 55.9 °F 48.0 °F 75% 30.13 in 10.0 mi North 12.7 mph 24.2 mph N/A   Overcast
10:55 AM 56.3 °F 47.1 °F 71% 30.12 in 10.0 mi NNW 8.1 mph 18.4 mph N/A   Overcast
11:15 AM 56.3 °F 46.6 °F 70% 30.13 in 10.0 mi NNW 11.5 mph 17.3 mph N/A   Overcast
11:35 AM 57.0 °F 46.0 °F 67% 30.13 in 10.0 mi NNW 9.2 mph - N/A   Overcast
11:55 AM 57.4 °F 44.6 °F 62% 30.13 in 10.0 mi NNW 10.4 mph 21.9 mph N/A   Overcast
12:15 PM 57.7 °F 44.6 °F 62% 30.13 in 10.0 mi NNW 16.1 mph 23.0 mph N/A   Overcast
12:35 PM 57.9 °F 44.6 °F 61% 30.14 in 10.0 mi NNW 13.8 mph 19.6 mph N/A   Overcast
12:55 PM 58.6 °F 43.9 °F 58% 30.13 in 10.0 mi NNW 15.0 mph 21.9 mph N/A   Mostly Cloudy
1:15 PM 59.7 °F 43.3 °F 55% 30.13 in 10.0 mi North 17.3 mph 21.9 mph N/A   Scattered Clouds
1:35 PM 59.4 °F 42.3 °F 53% 30.13 in 10.0 mi NNW 11.5 mph 25.3 mph N/A   Mostly Cloudy
1:55 PM 59.2 °F 43.0 °F 55% 30.13 in 10.0 mi North 15.0 mph 23.0 mph N/A   Overcast
2:15 PM 58.8 °F 43.7 °F 57% 30.13 in 10.0 mi North 10.4 mph 18.4 mph N/A   Mostly Cloudy
2:35 PM 58.3 °F 43.0 °F 57% 30.14 in 10.0 mi North 12.7 mph 19.6 mph N/A   Mostly Cloudy
2:55 PM 58.6 °F 43.0 °F 56% 30.14 in 10.0 mi North 15.0 mph 23.0 mph N/A   Overcast
3:15 PM 57.4 °F 43.2 °F 59% 30.15 in 10.0 mi NNW 12.7 mph 21.9 mph N/A   Overcast
3:35 PM 56.7 °F 43.2 °F 61% 30.15 in 10.0 mi NNW 15.0 mph 20.7 mph N/A   Overcast
3:55 PM 55.4 °F 43.2 °F 63% 30.15 in 10.0 mi North 13.8 mph 18.4 mph N/A   Overcast
4:15 PM 55.2 °F 42.6 °F 63% 30.15 in 10.0 mi NNW 10.4 mph - N/A   Overcast
4:35 PM 54.3 °F 42.6 °F 65% 30.15 in 10.0 mi NNW 13.8 mph 19.6 mph N/A   Overcast
4:55 PM 54.5 °F 42.3 °F 63% 30.16 in 10.0 mi NNW 12.7 mph 20.7 mph N/A   Overcast
5:15 PM 54.0 °F 42.6 °F 65% 30.16 in 10.0 mi NNW 6.9 mph 18.4 mph N/A   Overcast
5:35 PM 53.4 °F 42.4 °F 66% 30.16 in 10.0 mi North 12.7 mph 25.3 mph N/A   Overcast
5:55 PM 52.0 °F 44.1 °F 74% 30.17 in 10.0 mi North 10.4 mph 16.1 mph N/A   Overcast
6:15 PM 52.7 °F 43.9 °F 72% 30.17 in 10.0 mi North 9.2 mph 18.4 mph N/A   Overcast
6:35 PM 52.0 °F 43.9 °F 74% 30.17 in 10.0 mi NNW 8.1 mph - N/A   Overcast
6:55 PM 51.3 °F 44.6 °F 78% 30.18 in 10.0 mi NNW 9.2 mph - N/A   Overcast
7:15 PM 50.2 °F 44.1 °F 79% 30.18 in 10.0 mi NNW 4.6 mph - N/A   Scattered Clouds
7:35 PM 49.1 °F 44.1 °F 83% 30.19 in 10.0 mi NNW 5.8 mph - N/A   Clear
7:55 PM 49.1 °F 44.2 °F 83% 30.19 in 10.0 mi NNW 4.6 mph - N/A   Scattered Clouds
8:15 PM 48.7 °F 44.2 °F 84% 30.20 in 10.0 mi NNW 4.6 mph - N/A   Mostly Cloudy
8:35 PM 48.7 °F 44.2 °F 84% 30.20 in 10.0 mi North 3.5 mph - N/A   Mostly Cloudy
8:55 PM 49.3 °F 45.1 °F 86% 30.20 in 10.0 mi North 4.6 mph - N/A   Overcast
9:15 PM 49.1 °F 44.8 °F 85% 30.20 in 10.0 mi Calm Calm - N/A   Mostly Cloudy
9:35 PM 49.1 °F 45.1 °F 86% 30.20 in 10.0 mi NNE 5.8 mph - N/A   Mostly Cloudy
9:55 PM 48.4 °F 45.0 °F 88% 30.20 in 10.0 mi North 4.6 mph - N/A   Overcast
10:15 PM 47.7 °F 44.4 °F 89% 30.20 in 10.0 mi North 4.6 mph - N/A   Mostly Cloudy
10:35 PM 47.5 °F 45.1 °F 92% 30.21 in 10.0 mi Calm Calm - N/A   Mostly Cloudy
10:55 PM 48.2 °F 45.1 °F 89% 30.21 in 10.0 mi North 3.5 mph - N/A   Overcast
11:15 PM 48.4 °F 45.3 °F 89% 30.21 in 10.0 mi Calm Calm - N/A   Overcast
11:35 PM 48.2 °F 45.3 °F 90% 30.21 in 10.0 mi North 5.8 mph - N/A   Overcast
11:55 PM 48.2 °F 44.6 °F 87% 30.21 in 10.0 mi North 4.6 mph - N/A   Overcast